Hourly Data Report for April 17, 2012

MIRAMICHI RCS
NEW BRUNSWICK

47°00'34.000" N
65°27'54.000" W
33.00 m
8100989
71744
ACQ

Download Data

Hourly Data (April 2012)
Hourly Data Report for April 17, 2012
TIME
LST
Temp Definition
°C
Dew Point Definition
°C
Rel Hum Definition
%
Precip. Amount Definition
mm

Wind Dir Definition
10's deg

Wind Spd Definition
km/h
Visibility Definition
km
Stn Press Definition
kPa
Hmdx Definition


Wind Chill Definition


Weather Definition


00:00 14.2 10.7 79   22 28   100.85     LegendNANA
01:00 13.2 10.4 83   21 20   100.78     LegendNANA
02:00 12.7 10.4 86   21 19   100.74     LegendNANA
03:00 12.2 10.3 88   22 15   100.73     LegendNANA
04:00 12.9 10.8 87   22 26   100.69     LegendNANA
05:00 13.0 10.7 86   22 28   100.71     LegendNANA
06:00 13.1 10.7 85   23 24   100.83     LegendNANA
07:00 13.4 11.0 85   22 20   100.87     LegendNANA
08:00 13.9 11.1 83   22 26   100.82     LegendNANA
09:00 14.9 11.4 80   23 24   100.84     LegendNANA
10:00 16.6 12.0 74   23 24   100.84     LegendNANA
11:00 19.0 12.4 66   22 26   100.83     LegendNANA
12:00 21.4 11.2 52   23 26   100.79     LegendNANA
13:00 23.2 9.9 43   24 20   100.73     LegendNANA
14:00 24.5 7.9 35   23 24   100.67 25   LegendNANA
15:00 26.1 6.6 29   23 26   100.59 26   LegendNANA
16:00 25.7 6.9 30   23 20   100.56 26   LegendNANA
17:00 26.0 4.9 26   24 19   100.56 25   LegendNANA
18:00 24.6 5.1 28   24 13   100.60     LegendNANA
19:00 22.4 10.3 46   23 19   100.69     LegendNANA
20:00
21:00 18.7 0.6 30   26 9   100.95     LegendNANA
22:00 17.1 2.8 38   32 9   101.06     LegendNANA
23:00 14.0 4.8 54   34 7   101.17     LegendNANA

Notes on Data Quality.

Legend

  • E = Estimated
  • M = Missing
  • NA = Not Available*
  • [empty] = Indicates an unobserved value
Date modified: